STARLINK-30532, 58070

Orbit data source: Space-Track

STARLINK-30532, 58070 is a payload satellite owned by SpaceX/Seattle (US) in LEO that was launched on Fri, 13 Oct 2023 UTC via an FALCON 9 launch vehicle from the Air Force Eastern Test Range (AFETR). Payload-class satellites include a variety of spacecraft equipped with specific instruments for various scientific and technological missions. These include communications satellites like Starlink; space stations such as the ISS; scientific satellites like the Hubble; Earth observation satellites from companies like Planet Labs, Umbra, and HawkEye 360; GPS; miniature CubeSats for education and research; and military/defense satellites.

Loading next visibility...
Identifier
58070, 2023-158V
Orbit
LEO
Country
Flag of USUS
Related business
Manufacturer
SpaceX/Seattle
Mission
Operational Commercial Communications
Bus & Motor
STARLINK V2M, Unknown motor
Mass
730 kg wet, ~700 kg dry
Launch date (UTC)
2023-10-13 (3 years ago)
Launch vehicle
FALCON 9
Launch site
Air Force Eastern Test Range (AFETR)
Object type
Payload
Rocket body
Debris
Shape & HBR
Box + 2 Pan, 17.7 m
Radar Cross Section
33.884 m², Large (>1 m²)

Expand to show TLE details & history
Last TLE update: 3 days ago

TLE from 3 days ago
0 STARLINK-30532
1 58070U 23158V   26171.04497553  .00001942  00000-0  80060-4 0  9997
2 58070  43.0032 169.0199 0002580 283.0762  76.9801 15.27589484149224
Epoch: 2026-06-20T01:04Z
TLE epoch observation values (Epoch: 2026-06-20T01:04:45.885Z)
Latitude
-0.00007°
Longitude
-115.43661°
Altitude
482.398 km
Speed
7.626 km/s
True Right ascension
11h 16m 04s
True Declination
0° 00' 00"
Sunlit
Object was in daylight at epoch
Visualization orbit readout
Latitude
Unknown
Longitude
Unknown
Altitude
Unknown
Speed
Unknown
Apparent Right ascension
Unknown
Apparent Declination
Unknown
Sunlit
N/A
Visualization observer readout
Local Sidereal Time
00:39:37
Azimuth
Unknown
Elevation
Unknown
Doppler factor
Unknown
Orbital elements
Apogee altitude
486.736 km
Perigee altitude
483.195 km
Semi-major axis
6,863.102 km
Eccentricity
0.00026
Inclination
43.0032°
RAAN
169.0199°
Arg. of periapsis
283.0762°
True anomaly
77.00891°
Mean anomaly
76.9801°
Eccentric anomaly
76.9945°
Mean motion
3.81735 °/min
Orbital period
94.31 mins
BSTAR
0.00008006
Loading maneuver chart data...
Computing Atmospheric mass density...
Loading historical data...
Loading historical data...
Loading historical data...
Loading historical data...
Loading historical data...
Loading historical data...
Loading historical data...

Documentation

Showing up to 5 results
|